Temp
-17 -17 -17 -17 -17 -16 -16 -16 -16 -16 -16 -15 -15 -16 -15 -16 -16 -15 -15 -15 -15 -15 -15 -15 -15 -14 -14 -14 -15 -15 -15 -15 -15 -14 -15 -15 -15 -16 -16 -16 -16 -17 -16 -16
-17 -17 -17 -17 -16 -17 -16 -16 -16 -16 -16 -16 -15 -16 -16 -16 -16 -15 -15 -15 -15 -15 -14 -14 -14 -14 -14 -14 -15 -15 -15 -16 -16 -16 -15 -15 -16 -15 -15 -16 -17 -17 -18 -19
-17 -17 -17 -17 -17 -17 -16 -16 -16 -16 -16 -16 -16 -16 -15 -15 -15 -15 -15 -15 -15 -15 -15 -15 -15 -15 -15 -15 -15 -15 -15 -15 -15 -15 -15 -15 -15 -15 -16 -17 -17 -18 -18 -18
-17 -17 -17 -17 -17 -17 -16 -16 -16 -16 -16 -16 -16 -15 -15 -15 -15 -15 -15 -15 -15 -15 -15 -15 -15 -16 -16 -16 -16 -15 -15 -15 -14 -14 -14 -15 -16 -16 -16 -17 -17 -18 -18 -19
-17 -17 -17 -17 -17 -17 -17 -16 -16 -16 -16 -16 -15 -15 -16 -15 -15 -15 -15 -15 -15 -15 -15 -16 -16 -16 -16 -16 -16 -15 -15 -15 -15 -15 -15 -16 -16 -16 -16 -17 -18 -18 -18 -18
-17 -17 -17 -17 -17 -17 -16 -16 -16 -16 -16 -15 -15 -15 -15 -15 -15 -15 -15 -14 -15 -15 -15 -16 -16 -15 -15 -15 -15 -15 -15 -15 -15 -15 -15 -15 -16 -17 -17 -18 -18 -18 -18 -18
-17 -17 -17 -17 -17 -16 -16 -16 -16 -15 -15 -15 -15 -15 -14 -14 -14 -14 -14 -14 -14 -15 -15 -15 -15 -15 -15 -15 -15 -15 -15 -15 -15 -15 -16 -16 -17 -17 -17 -18 -18 -19 -19 -19
-17 -17 -16 -16 -16 -16 -16 -16 -16 -15 -15 -15 -15 -14 -14 -14 -14 -14 -14 -14 -14 -14 -14 -14 -14 -15 -15 -14 -15 -15 -15 -15 -15 -16 -16 -17 -17 -17 -17 -18 -18 -19 -19 -19
-17 -16 -16 -16 -16 -16 -15 -16 -15 -15 -15 -15 -14 -14 -14 -14 -14 -14 -14 -14 -14 -14 -14 -14 -14 -14 -15 -15 -15 -15 -15 -16 -16 -17 -17 -17 -17 -18 -18 -18 -19 -19 -19 -19
-16 -16 -16 -16 -16 -15 -15 -15 -15 -15 -15 -15 -14 -14 -14 -14 -14 -14 -14 -14 -14 -14 -14 -15 -15 -15 -15 -15 -15 -16 -16 -16 -17 -17 -17 -18 -18 -18 -18 -19 -19 -19 -19 -19
-16 -16 -16 -16 -15 -16 -15 -15 -15 -15 -15 -14 -15 -15 -14 -14 -14 -14 -14 -14 -14 -14 -15 -15 -15 -15 -15 -16 -16 -16 -16 -16 -17 -17 -18 -18 -18 -19 -19 -19 -19 -19 -20 -20
-16 -15 -15 -15 -16 -15 -15 -15 -15 -15 -15 -15 -15 -15 -15 -15 -15 -15 -15 -15 -15 -15 -15 -15 -15 -15 -16 -16 -16 -16 -16 -17 -17 -18 -18 -18 -19 -19 -19 -20 -20 -20 -20 -20
-15 -15 -15 -15 -15 -15 -15 -15 -15 -15 -15 -15 -15 -15 -15 -15 -15 -15 -15 -15 -15 -15 -15 -15 -15 -16 -16 -16 -16 -16 -17 -17 -18 -18 -19 -19 -20 -20 -20 -20 -20 -20 -21 -21
-15 -15 -15 -15 -15 -15 -15 -15 -15 -15 -15 -15 -15 -15 -15 -15 -15 -15 -15 -15 -15 -15 -15 -15 -16 -16 -16 -16 -17 -17 -17 -18 -18 -19 -19 -20 -20 -20 -20 -20 -21 -21 -21 -22
-15 -15 -15 -15 -15 -15 -15 -15 -15 -15 -15 -15 -15 -15 -16 -15 -15 -15 -15 -15 -15 -15 -16 -16 -16 -16 -17 -17 -17 -18 -18 -18 -19 -19 -20 -20 -20 -21 -21 -21 -21 -22 -22 -22
-15 -15 -15 -15 -15 -15 -15 -15 -15 -15 -15 -15 -15 -15 -16 -15 -15 -15 -15 -15 -16 -16 -16 -16 -17 -17 -17 -17 -18 -18 -18 -19 -19 -19 -20 -20 -21 -21 -21 -21 -22 -22 -23 -23
-15 -15 -15 -15 -15 -15 -14 -15 -15 -15 -15 -15 -15 -15 -15 -15 -15 -15 -15 -16 -16 -16 -16 -17 -17 -17 -18 -18 -18 -19 -19 -19 -20 -20 -20 -21 -21 -21 -22 -22 -23 -23 -23 -24
-15 -15 -15 -15 -15 -14 -15 -15 -15 -15 -15 -15 -15 -15 -15 -15 -15 -16 -16 -16 -17 -17 -17 -18 -18 -18 -18 -18 -19 -19 -19 -20 -20 -20 -21 -21 -21 -22 -22 -23 -23 -23 -24 -24
-15 -15 -15 -15 -15 -14 -15 -15 -15 -15 -15 -15 -15 -15 -15 -15 -16 -16 -16 -17 -17 -18 -18 -18 -18 -18 -18 -19 -19 -20 -20 -20 -20 -21 -21 -21 -22 -22 -23 -23 -24 -24 -25 -25
-15 -15 -15 -15 -15 -14 -15 -15 -15 -15 -15 -15 -15 -15 -15 -16 -16 -17 -17 -17 -18 -18 -18 -18 -18 -19 -19 -19 -20 -20 -20 -20 -21 -22 -21 -22 -22 -22 -23 -24 -24 -25 -25 -26
-15 -15 -15 -15 -15 -14 -15 -15 -14 -15 -14 -14 -15 -15 -16 -16 -17 -17 -17 -18 -18 -18 -18 -19 -19 -19 -20 -20 -20 -20 -21 -21 -22 -21 -22 -22 -23 -23 -24 -25 -25 -25 -26 -27
-15 -15 -15 -15 -15 -15 -15 -14 -14 -14 -15 -15 -15 -16 -16 -17 -17 -18 -18 -18 -18 -19 -19 -20 -20 -20 -20 -20 -20 -21 -21 -21 -21 -22 -22 -22 -23 -24 -25 -25 -25 -26 -27 -28
-15 -15 -15 -15 -15 -15 -14 -14 -14 -15 -15 -16 -16 -17 -17 -17 -18 -18 -18 -18 -19 -19 -19 -19 -19 -20 -20 -20 -20 -21 -22 -22 -22 -22 -23 -23 -24 -25 -25 -25 -26 -27 -28 -29
-15 -15 -15 -15 -15 -15 -15 -15 -15 -16 -16 -17 -17 -18 -18 -18 -18 -18 -19 -19 -19 -19 -19 -20 -20 -20 -20 -21 -21 -21 -22 -22 -22 -23 -23 -24 -25 -25 -26 -26 -27 -28 -29 -30
-15 -15 -15 -15 -15 -15 -16 -16 -16 -16 -17 -17 -17 -18 -18 -18 -19 -19 -19 -19 -19 -20 -20 -20 -20 -21 -21 -21 -22 -22 -22 -22 -23 -24 -24 -25 -26 -26 -26 -27 -28 -30 -30 -31
-16 -15 -15 -16 -16 -16 -17 -17 -17 -17 -17 -18 -18 -18 -19 -19 -19 -19 -19 -19 -20 -20 -20 -21 -21 -21 -22 -22 -22 -22 -23 -23 -24 -24 -25 -26 -26 -27 -28 -29 -29 -30 -31 -32
Height
5771 5778 5780 5783 5785 5787 5789 5791 5792 5793 5794 5795 5797 5799 5800 5801 5801 5802 5803 5804 5805 5806 5806 5806 5805 5804 5803 5802 5800 5799 5798 5795 5790 5784 5786 5780 5778 5775 5772 5767 5761 5755 5751 5747
5775 5777 5780 5783 5785 5787 5788 5790 5791 5793 5794 5796 5798 5798 5799 5800 5801 5802 5802 5803 5803 5803 5803 5804 5802 5801 5799 5797 5795 5792 5791 5790 5787 5782 5778 5774 5772 5767 5762 5756 5750 5746 5740 5734
5774 5778 5780 5782 5784 5786 5788 5789 5791 5792 5794 5795 5796 5797 5797 5799 5800 5800 5800 5800 5800 5800 5800 5798 5797 5795 5794 5791 5789 5787 5784 5782 5778 5775 5772 5769 5762 5756 5751 5745 5740 5735 5730 5725
5773 5776 5779 5780 5782 5784 5786 5788 5789 5792 5793 5796 5795 5800 5796 5796 5797 5797 5796 5795 5795 5795 5795 5794 5792 5790 5788 5786 5783 5781 5779 5775 5773 5769 5764 5759 5755 5750 5744 5739 5733 5727 5721 5716
5774 5775 5777 5779 5780 5782 5784 5786 5788 5789 5791 5792 5793 5794 5795 5794 5793 5791 5791 5790 5790 5790 5789 5788 5786 5784 5782 5780 5778 5776 5774 5770 5766 5761 5757 5753 5748 5742 5735 5728 5722 5717 5711 5706
5770 5773 5775 5777 5779 5780 5782 5785 5786 5787 5787 5788 5789 5791 5792 5789 5787 5785 5785 5786 5785 5785 5784 5782 5780 5779 5777 5775 5772 5770 5766 5763 5759 5755 5751 5745 5739 5733 5727 5721 5715 5708 5702 5695
5769 5771 5773 5774 5776 5778 5781 5783 5784 5785 5785 5786 5786 5785 5785 5782 5781 5780 5780 5781 5780 5780 5778 5777 5776 5774 5772 5770 5767 5764 5761 5756 5752 5747 5742 5737 5731 5725 5718 5712 5704 5698 5691 5684
5767 5770 5770 5773 5775 5776 5778 5780 5781 5781 5781 5781 5780 5781 5780 5779 5778 5778 5778 5777 5777 5776 5775 5774 5772 5770 5768 5764 5761 5757 5753 5748 5744 5739 5734 5728 5723 5716 5709 5701 5693 5685 5677 5670
5765 5766 5769 5771 5772 5774 5775 5776 5778 5777 5777 5778 5778 5778 5778 5777 5777 5776 5776 5775 5774 5773 5771 5769 5767 5764 5761 5758 5754 5750 5745 5740 5736 5731 5726 5720 5713 5705 5697 5689 5681 5673 5665 5657
5763 5765 5766 5768 5769 5771 5771 5773 5774 5774 5775 5775 5776 5775 5775 5775 5775 5774 5773 5771 5770 5768 5766 5763 5760 5757 5754 5751 5746 5741 5737 5733 5727 5721 5715 5707 5699 5693 5685 5677 5668 5660 5652 5643
5760 5762 5764 5764 5766 5766 5768 5768 5770 5771 5772 5773 5774 5774 5773 5772 5771 5770 5769 5767 5765 5763 5760 5757 5753 5750 5746 5742 5737 5733 5728 5723 5717 5710 5702 5695 5688 5680 5673 5664 5655 5646 5637 5627
5756 5758 5759 5760 5761 5761 5763 5765 5766 5767 5770 5770 5770 5771 5768 5768 5767 5766 5764 5762 5759 5756 5753 5750 5746 5742 5738 5734 5729 5724 5717 5711 5704 5697 5690 5683 5675 5667 5659 5650 5641 5631 5622 5613
5753 5754 5755 5756 5758 5759 5760 5762 5763 5764 5765 5766 5766 5767 5764 5763 5762 5760 5758 5755 5752 5749 5746 5742 5738 5734 5728 5723 5718 5712 5706 5699 5692 5685 5677 5669 5662 5654 5646 5637 5627 5618 5609 5598
5747 5749 5751 5753 5753 5754 5756 5757 5759 5760 5761 5762 5763 5760 5758 5756 5755 5754 5751 5748 5744 5741 5737 5733 5728 5723 5717 5712 5707 5701 5694 5688 5681 5673 5665 5658 5650 5642 5633 5624 5615 5604 5593 5581
5743 5745 5746 5748 5749 5750 5752 5754 5755 5756 5757 5756 5757 5755 5752 5747 5747 5746 5743 5740 5736 5732 5727 5723 5717 5712 5706 5702 5696 5689 5683 5676 5668 5661 5654 5646 5638 5629 5620 5610 5600 5588 5576 5564
5739 5741 5742 5743 5745 5747 5748 5750 5751 5752 5752 5750 5748 5749 5745 5741 5738 5736 5733 5730 5726 5722 5717 5712 5706 5701 5695 5690 5683 5677 5671 5664 5657 5649 5641 5633 5624 5615 5605 5594 5584 5572 5560 5547
5734 5736 5738 5741 5741 5742 5745 5748 5747 5746 5746 5744 5741 5741 5737 5734 5729 5727 5724 5720 5716 5711 5706 5701 5695 5689 5683 5678 5672 5665 5658 5651 5643 5636 5628 5619 5610 5600 5589 5579 5568 5557 5543 5530
5731 5733 5735 5737 5737 5737 5742 5741 5741 5739 5739 5736 5734 5730 5728 5724 5720 5717 5713 5708 5704 5699 5694 5689 5683 5677 5671 5665 5659 5652 5645 5637 5630 5623 5614 5605 5595 5585 5575 5564 5552 5540 5527 5514
5727 5728 5730 5731 5732 5733 5734 5735 5735 5731 5732 5727 5723 5720 5717 5714 5710 5706 5701 5696 5691 5687 5682 5676 5670 5664 5659 5652 5646 5639 5632 5625 5617 5608 5600 5591 5581 5571 5560 5549 5537 5523 5511 5496
5723 5724 5726 5726 5726 5726 5727 5726 5725 5722 5720 5717 5715 5711 5707 5702 5698 5692 5689 5684 5679 5675 5669 5664 5658 5652 5646 5639 5633 5626 5619 5611 5603 5594 5585 5576 5566 5555 5545 5533 5520 5508 5495 5481
5719 5719 5720 5720 5719 5719 5718 5717 5715 5713 5712 5706 5702 5699 5695 5691 5686 5681 5677 5672 5667 5662 5656 5650 5644 5639 5633 5626 5619 5612 5604 5596 5589 5580 5571 5561 5550 5540 5529 5517 5506 5494 5479 5466
5714 5714 5714 5714 5712 5710 5709 5706 5704 5702 5698 5695 5690 5686 5682 5678 5674 5669 5664 5659 5655 5649 5644 5638 5633 5626 5620 5613 5606 5600 5592 5584 5576 5567 5556 5546 5536 5525 5513 5500 5489 5477 5464 5452
5709 5708 5707 5707 5704 5700 5696 5694 5692 5689 5686 5682 5678 5673 5669 5665 5661 5656 5651 5647 5642 5637 5631 5625 5619 5614 5608 5601 5593 5586 5579 5571 5561 5551 5541 5531 5520 5508 5496 5486 5474 5462 5451 5440
5700 5699 5698 5696 5694 5689 5687 5684 5681 5677 5674 5671 5667 5662 5658 5653 5649 5644 5639 5634 5629 5624 5618 5612 5606 5599 5594 5588 5581 5573 5564 5554 5545 5536 5526 5515 5504 5493 5482 5471 5460 5449 5438 5428
5692 5689 5688 5686 5683 5680 5676 5673 5669 5666 5663 5659 5655 5651 5646 5642 5638 5633 5628 5622 5617 5611 5605 5600 5593 5587 5580 5573 5566 5558 5550 5540 5530 5520 5510 5500 5490 5480 5468 5457 5446 5436 5427 5417
5681 5678 5676 5674 5671 5668 5666 5663 5660 5656 5652 5648 5644 5640 5635 5630 5626 5621 5616 5610 5604 5599 5592 5586 5579 5572 5564 5557 5549 5542 5533 5523 5513 5505 5496 5486 5476 5465 5454 5443 5433 5425 5415 5407
Wind_Speed
25 18 14 13 13 11 9 16 9 10 9 12 11 10 9 7 5 5 5 7 11 12 13 15 17 20 21 23 23 26 24 30 29 28 40 42 45 46 47 49 48 52 55 49
15 15 20 17 10 8 10 16 12 12 9 9 10 11 8 7 7 6 9 11 12 13 14 15 16 18 17 21 24 25 26 25 33 35 42 45 47 50 54 54 53 50 48 47
23 17 17 19 16 10 9 21 16 8 7 6 8 10 9 9 8 10 11 13 12 13 15 16 18 19 21 25 28 29 30 30 35 39 43 46 50 55 58 58 55 51 51 52
17 15 12 14 13 12 12 16 16 11 10 9 11 8 15 14 14 15 15 14 16 16 17 18 17 19 23 26 27 29 31 36 41 45 46 48 50 55 51 51 51 53 53 54
18 20 16 9 14 16 15 10 11 12 16 18 18 19 21 16 18 18 18 19 19 18 18 18 19 23 26 27 29 32 34 34 34 35 40 44 46 50 53 54 55 55 56 58
22 19 17 17 16 17 14 12 13 15 16 18 21 19 17 17 20 22 21 20 19 17 17 18 22 24 24 24 24 23 26 29 31 35 37 42 45 50 53 55 57 59 59 59
20 18 19 15 14 16 15 15 15 15 17 17 16 19 13 13 15 16 16 15 14 15 15 16 16 15 16 17 20 23 26 30 34 36 39 42 46 50 54 56 57 58 59 61
21 20 16 14 15 18 21 18 17 17 17 19 16 11 11 11 10 8 7 7 7 7 9 11 13 16 17 20 24 27 31 34 37 40 43 46 48 50 53 56 59 60 61 62
17 19 18 19 18 17 16 17 17 18 15 12 9 8 6 6 7 7 7 8 8 10 12 15 17 20 22 25 29 32 35 38 41 43 46 48 50 53 55 58 60 60 61 63
19 20 21 20 20 19 19 18 16 13 11 9 8 7 9 8 8 7 9 11 13 16 18 20 22 25 28 31 34 36 39 41 43 46 48 50 53 57 58 61 61 61 63 65
20 21 20 21 20 20 19 16 14 13 12 11 8 10 10 10 10 11 13 16 18 21 23 25 27 30 32 35 38 40 43 44 46 49 51 54 57 57 60 62 62 63 66 70
20 21 21 21 20 21 19 16 15 15 14 13 12 10 13 13 14 15 18 20 23 25 27 30 32 35 37 39 41 43 46 48 50 52 55 57 58 60 63 64 64 66 70 75
22 23 22 21 18 15 15 16 17 16 16 15 15 14 18 17 18 21 23 25 28 30 33 35 37 39 41 44 45 46 49 51 52 55 58 59 60 62 64 65 67 70 75 79
23 22 19 18 18 17 17 19 19 19 18 19 17 20 21 25 25 25 29 31 34 36 38 40 42 44 46 47 48 50 51 53 54 57 59 60 62 63 65 66 70 74 78 79
20 18 18 17 18 18 19 22 22 21 21 22 20 23 25 33 33 32 34 37 39 42 44 45 46 47 49 50 52 53 53 55 56 58 60 61 63 64 65 69 73 76 78 81
17 17 18 18 18 19 21 22 22 23 23 25 28 27 31 36 39 40 41 43 45 47 47 48 48 50 52 53 54 54 55 56 58 60 61 62 62 64 68 72 75 76 79 80
17 17 19 18 20 23 23 21 24 26 27 30 33 33 37 40 45 46 47 49 49 49 49 49 50 52 54 55 55 55 56 57 59 60 61 61 64 68 71 75 75 79 80 82
13 15 18 17 22 25 20 23 26 30 32 36 38 41 43 46 49 50 51 51 49 48 49 49 51 54 56 55 55 55 57 58 59 60 61 65 68 71 75 76 77 80 81 85
14 16 19 21 21 24 25 26 28 33 35 39 42 45 47 48 49 49 49 49 49 49 50 51 53 55 54 53 53 56 58 59 59 61 64 70 71 74 76 77 80 82 83 84
14 16 18 20 23 24 24 26 29 33 36 38 40 42 44 46 47 49 48 49 50 50 52 53 53 53 52 53 56 58 59 60 61 63 71 74 75 77 77 78 81 83 83 80
16 18 19 21 23 24 26 28 30 33 38 40 42 43 44 45 47 48 49 49 49 50 50 50 50 51 53 56 57 58 59 60 63 71 75 76 77 78 77 78 84 84 82 75
15 18 20 23 26 30 31 35 37 39 41 42 44 45 45 44 44 45 47 48 47 46 47 48 51 53 55 56 56 57 58 61 69 72 75 79 80 80 79 81 83 80 76 68
22 24 25 27 30 35 39 41 42 43 43 43 43 44 45 45 45 46 46 46 46 47 51 53 55 54 54 56 58 58 59 69 72 74 76 79 81 80 80 83 80 77 70 62
28 29 31 34 36 40 42 43 43 43 42 42 42 43 44 45 45 45 46 48 51 52 54 55 56 57 58 59 61 64 66 70 72 75 79 81 82 82 81 79 75 72 62 57
33 35 37 37 39 41 41 41 42 42 43 43 43 43 43 44 46 48 50 52 53 54 54 55 57 59 60 62 60 66 72 77 77 77 82 84 83 82 79 75 70 63 56 51
35 38 40 40 39 40 39 39 39 40 40 42 43 44 45 47 49 49 50 52 52 53 55 57 60 61 64 63 62 68 74 76 73 79 82 82 83 78 72 69 64 56 51 46
Wind_Direction
153 163 163 166 176 182 199 196 207 231 205 191 190 203 219 235 237 268 271 225 237 248 251 255 257 263 265 272 276 277 276 269 272 276 294 305 304 311 308 306 310 312 313 311
181 169 165 179 181 195 191 206 213 229 210 202 205 207 207 215 232 252 254 247 245 251 253 257 266 273 277 276 275 274 281 286 295 297 299 304 304 303 306 308 310 312 312 312
176 195 208 206 198 228 223 211 219 233 222 220 222 233 236 225 230 237 240 246 253 261 267 275 281 286 284 285 282 279 287 292 294 298 303 303 305 308 309 308 309 310 311 310
175 183 203 229 232 224 232 227 240 225 235 250 252 244 253 240 244 252 250 254 261 267 271 276 278 282 278 279 278 284 290 293 300 297 303 306 303 303 305 305 306 307 308 306
208 217 235 262 242 232 230 240 248 256 253 255 257 264 263 256 252 251 253 258 265 269 268 268 275 282 283 284 283 285 294 296 300 303 303 301 301 306 308 308 307 305 303 301
222 232 252 263 247 232 236 233 257 256 258 248 254 262 254 261 255 246 248 253 254 257 261 269 276 282 289 291 293 298 301 302 305 305 308 311 311 310 308 305 302 301 300 301
230 244 251 244 244 244 234 245 263 254 253 258 261 263 270 255 244 244 242 248 254 260 270 281 290 292 295 297 300 302 303 304 305 308 311 310 309 307 306 305 303 302 301 303
241 239 224 218 228 239 242 245 250 259 265 269 264 260 240 253 253 251 256 257 267 282 283 287 293 297 301 305 307 305 304 305 305 306 306 304 303 304 305 304 303 304 305 305
215 219 215 222 233 237 234 241 249 261 261 249 239 233 232 240 252 266 271 274 279 285 292 296 298 299 301 302 301 302 302 302 302 301 299 300 302 305 308 308 306 305 305 304
212 225 229 234 236 235 238 243 249 243 236 224 210 239 252 257 255 270 283 286 285 286 290 294 298 299 299 299 299 299 300 300 300 301 303 306 307 307 310 309 306 305 305 308
224 231 230 235 237 242 244 241 231 228 218 208 216 254 254 257 269 283 290 292 290 290 293 294 295 296 297 299 300 300 300 301 302 305 308 307 306 309 309 308 307 307 308 308
231 236 240 243 245 249 244 228 223 215 216 225 245 259 270 275 281 288 293 295 294 294 294 293 293 294 295 296 298 300 302 305 305 307 306 306 308 308 308 309 308 308 309 310
235 237 239 240 243 235 232 230 222 219 228 240 258 276 276 280 284 290 292 295 295 295 295 295 294 294 294 296 300 303 304 305 307 306 306 306 307 307 309 309 310 309 310 311
237 238 237 232 230 228 228 224 224 231 242 256 265 274 282 284 285 291 295 295 295 296 297 298 298 298 298 298 299 301 303 305 306 305 305 306 307 308 309 309 309 311 312 313
233 235 229 229 229 230 230 230 236 246 254 262 268 273 285 287 291 294 294 295 296 297 298 299 299 297 298 299 299 299 302 304 304 304 305 306 308 308 308 309 311 314 315 317
231 229 233 232 237 239 237 239 248 256 263 270 274 279 280 287 291 293 294 296 297 298 298 298 297 297 299 300 300 299 302 304 304 306 306 307 307 308 310 313 316 316 318 318
230 230 232 232 244 246 244 251 257 261 267 274 278 282 284 285 289 292 294 295 296 297 297 296 296 297 299 300 301 300 302 304 306 305 306 307 308 309 312 315 317 319 321 321
228 232 238 243 250 255 258 253 260 266 270 275 279 282 284 287 289 291 292 294 296 295 295 296 297 298 300 301 301 301 305 306 305 305 308 308 308 310 313 315 317 322 322 322
231 236 243 251 254 263 266 266 267 270 272 276 279 281 285 287 289 291 293 293 294 295 296 297 297 299 300 302 303 305 305 305 306 308 306 306 308 310 313 316 320 323 322 321
244 250 256 263 267 270 273 273 273 274 277 277 281 283 285 287 288 289 291 292 294 296 296 298 299 301 304 305 305 305 307 307 309 305 303 305 306 311 313 319 322 323 322 322
256 261 266 270 274 280 281 281 281 282 285 288 288 289 288 288 290 291 292 294 296 297 299 301 302 304 304 304 306 308 309 307 300 298 304 302 305 310 317 321 323 324 323 321
270 276 277 281 286 286 288 287 286 290 291 291 290 291 292 293 293 294 295 296 299 300 300 300 301 302 305 306 306 306 306 301 297 303 301 300 307 315 320 323 323 323 322 319
277 280 283 285 284 285 287 291 296 295 294 293 294 295 296 296 296 298 299 301 302 302 302 302 302 305 304 306 309 305 293 298 301 298 299 305 312 319 322 322 321 323 320 317
280 283 283 284 284 289 292 293 293 292 293 294 295 294 295 296 299 300 301 302 302 302 302 302 304 307 308 308 304 301 300 297 295 298 306 314 318 320 320 320 321 320 318 318
280 281 284 287 287 289 288 288 290 292 293 293 293 294 296 297 298 300 301 301 301 300 301 302 304 304 303 304 305 294 295 297 299 307 314 315 318 318 319 320 320 319 317 318
282 285 287 287 287 287 286 287 290 291 291 292 294 296 297 299 299 299 299 299 300 302 303 304 303 303 301 294 293 294 295 294 302 310 311 314 316 317 319 319 319 318 318 317